Location: Kitchener
(43.4500°N, 80.5000°W)
Time: 22:22:53
(UTC-04:00)

Cosmos 1939 Rocket - Visible Passes

Search period start: 05 May 2015 00:00
Search period end: 15 May 2015 00:00
Orbit: 534 x 593 km, 97.6° (Epoch: 04 May)

Date Brightness Start Highest point End Pass type
(mag) Time Alt. Az. Time Alt. Az. Time Alt. Az.
05 May 3.9 21:11:05 10° SE 21:14:27 29° ENE 21:17:52 10° N visible
05 May 5.0 22:46:58 12° SW 22:49:33 21° W 22:52:32 10° NW visible
06 May 3.9 21:11:02 10° SE 21:14:24 29° ENE 21:17:48 10° N visible
06 May 5.0 22:46:51 12° SW 22:49:29 21° W 22:52:28 10° NW visible
07 May 3.9 21:10:59 10° SE 21:14:20 29° ENE 21:17:44 10° N visible
07 May 5.0 22:46:44 12° SW 22:49:26 21° W 22:52:24 10° NW visible
08 May 3.9 21:10:55 10° SE 21:14:17 29° ENE 21:17:40 10° N visible
08 May 5.0 22:46:36 11° SW 22:49:22 21° W 22:52:20 10° NW visible
09 May 3.9 21:10:52 10° SE 21:14:13 29° ENE 21:17:36 10° N visible
09 May 5.0 22:46:28 11° SW 22:49:18 21° W 22:52:16 10° NW visible
10 May 3.9 21:10:48 10° SE 21:14:08 28° ENE 21:17:31 10° N visible
10 May 5.0 22:46:21 11° SW 22:49:14 21° W 22:52:12 10° NW visible
11 May 3.9 21:10:44 10° SE 21:14:04 28° ENE 21:17:27 10° N visible
11 May 5.0 22:46:13 11° SW 22:49:09 21° W 22:52:07 10° NW visible
12 May 3.9 21:10:40 10° SE 21:14:00 28° ENE 21:17:22 10° N visible
12 May 5.0 22:46:05 10° SW 22:49:05 21° W 22:52:03 10° NW visible
13 May 3.9 21:10:36 10° SE 21:13:55 28° ENE 21:17:17 10° N visible
13 May 5.0 22:45:57 10° SW 22:49:00 21° W 22:51:58 10° NW visible
14 May 3.9 21:10:31 10° SE 21:13:50 28° ENE 21:17:12 10° N visible
14 May 5.0 22:45:53 10° SW 22:48:55 21° W 22:51:53 10° NW visible
